Time,TemperatureF,DewpointF,PressureIn,WindDirection,WindDirectionDegrees,WindSpeedMPH,WindSpeedGustMPH,Humidity,HourlyPrecipIn,Conditions,Clouds,dailyrainin,SoftwareType,DateUTC
2013-08-25 01:52:00,69.0,56.0,-100.00,SE,142,8.0,11.0,63,-99.99,,,-99.99,,2013-08-25 08:52:00,
2013-08-25 02:11:00,70.0,55.0,-100.00,SSE,150,6.0,8.0,59,-99.99,,,-99.99,,2013-08-25 09:11:00,
2013-08-25 02:22:00,70.0,55.0,-100.00,SSE,150,6.0,8.0,59,-99.99,,,-99.99,,2013-08-25 09:22:00,
2013-08-25 02:34:00,70.0,55.0,-100.00,SSE,150,6.0,8.0,59,-99.99,,,-99.99,,2013-08-25 09:34:00,
2013-08-25 02:40:00,72.0,48.0,-100.00,SSE,148,5.0,7.0,42,-99.99,,,-99.99,,2013-08-25 09:40:00,
2013-08-25 03:12:00,72.0,48.0,-100.00,SSE,148,5.0,7.0,42,-99.99,,,-99.99,,2013-08-25 10:12:00,
2013-08-25 03:22:00,72.0,48.0,-100.00,SSE,148,5.0,7.0,42,-99.99,,,-99.99,,2013-08-25 10:22:00,
2013-08-25 03:33:00,72.0,48.0,-100.00,SSE,148,5.0,7.0,42,-99.99,,,-99.99,,2013-08-25 10:33:00,
2013-08-25 04:52:00,71.0,44.0,-100.00,SSE,166,4.0,7.0,38,-99.99,,,-99.99,,2013-08-25 11:52:00,
2013-08-25 05:22:00,72.0,48.0,-100.00,South,185,4.0,5.0,43,-99.99,,,-99.99,,2013-08-25 12:22:00,
2013-08-25 05:32:00,72.0,48.0,-100.00,South,185,4.0,5.0,43,-99.99,,,-99.99,,2013-08-25 12:32:00,
2013-08-25 05:42:00,72.0,48.0,-100.00,South,185,4.0,5.0,43,-99.99,,,-99.99,,2013-08-25 12:42:00,
2013-08-25 05:50:00,72.0,53.0,-100.00,South,187,4.0,7.0,51,-99.99,,,-99.99,,2013-08-25 12:50:00,
2013-08-25 06:21:00,72.0,53.0,-100.00,South,187,4.0,7.0,51,-99.99,,,-99.99,,2013-08-25 13:21:00,
2013-08-25 06:32:00,72.0,53.0,-100.00,South,187,4.0,7.0,51,-99.99,,,-99.99,,2013-08-25 13:32:00,
2013-08-25 06:42:00,72.0,53.0,-100.00,South,187,4.0,7.0,51,-99.99,,,-99.99,,2013-08-25 13:42:00,
2013-08-25 07:52:00,74.0,52.0,-100.00,SSE,152,4.0,8.0,47,-99.99,,,-99.99,,2013-08-25 14:52:00,
2013-08-25 08:44:00,80.0,54.0,-100.00,SE,128,6.0,10.0,41,-99.99,,,-99.99,,2013-08-25 15:44:00,
2013-08-25 08:54:00,80.0,54.0,-100.00,SE,128,6.0,10.0,41,-99.99,,,-99.99,,2013-08-25 15:54:00,
2013-08-25 09:10:00,81.0,53.0,-100.00,SW,236,4.0,10.0,38,-99.99,,,-99.99,,2013-08-25 16:10:00,
2013-08-25 09:44:00,81.0,53.0,-100.00,SW,236,4.0,10.0,38,-99.99,,,-99.99,,2013-08-25 16:44:00,
2013-08-25 09:53:00,81.0,53.0,-100.00,SW,236,4.0,10.0,38,-99.99,,,-99.99,,2013-08-25 16:53:00,
2013-08-25 10:03:00,81.0,53.0,-100.00,SW,236,4.0,10.0,38,-99.99,,,-99.99,,2013-08-25 17:03:00,
2013-08-25 11:52:00,80.0,55.0,-100.00,NW,304,11.0,15.0,42,-99.99,,,-99.99,,2013-08-25 18:52:00,
2013-08-25 12:02:00,80.0,55.0,-100.00,NW,304,11.0,15.0,42,-99.99,,,-99.99,,2013-08-25 19:02:00,
2013-08-25 12:22:00,79.0,56.0,-100.00,WNW,301,9.0,11.0,45,-99.99,,,-99.99,,2013-08-25 19:22:00,
2013-08-25 12:53:00,82.0,55.0,-100.00,West,272,4.0,7.0,40,-99.99,,,-99.99,,2013-08-25 19:53:00,
2013-08-25 13:52:00,82.0,54.0,-100.00,SW,232,5.0,12.0,38,-99.99,,,-99.99,,2013-08-25 20:52:00,
2013-08-25 14:01:00,82.0,54.0,-100.00,SW,232,5.0,12.0,38,-99.99,,,-99.99,,2013-08-25 21:01:00,
2013-08-25 14:43:00,79.0,61.0,-100.00,SE,133,13.0,21.0,54,-99.99,,,-99.99,,2013-08-25 21:43:00,
2013-08-25 14:54:00,79.0,61.0,-100.00,SE,133,13.0,21.0,54,-99.99,,,-99.99,,2013-08-25 21:54:00,
2013-08-25 16:12:00,82.0,57.0,-100.00,West,259,8.0,16.0,43,-99.99,,,-99.99,,2013-08-25 23:12:00,
2013-08-25 16:42:00,82.0,60.0,-100.00,WNW,292,15.0,21.0,48,-99.99,,,-99.99,,2013-08-25 23:42:00,
2013-08-25 16:53:00,82.0,60.0,-100.00,WNW,292,15.0,21.0,48,-99.99,,,-99.99,,2013-08-25 23:53:00,
2013-08-25 17:02:00,82.0,60.0,-100.00,WNW,292,15.0,21.0,48,-99.99,,,-99.99,,2013-08-26 00:02:00,
2013-08-25 17:22:00,80.0,60.0,-100.00,WNW,297,15.0,25.0,51,-99.99,,,-99.99,,2013-08-26 00:22:00,
2013-08-25 17:32:00,80.0,60.0,-100.00,WNW,297,15.0,25.0,51,-99.99,,,-99.99,,2013-08-26 00:32:00,
2013-08-25 17:42:00,80.0,60.0,-100.00,WNW,297,15.0,25.0,51,-99.99,,,-99.99,,2013-08-26 00:42:00,
2013-08-25 18:11:00,69.0,61.0,-100.00,SSE,151,7.0,14.0,77,-99.99,,,-99.99,,2013-08-26 01:11:00,
2013-08-25 18:42:00,67.0,63.0,-100.00,East,88,6.0,9.0,86,-99.99,,,-99.99,,2013-08-26 01:42:00,
2013-08-25 18:52:00,67.0,63.0,-100.00,East,88,6.0,9.0,86,-99.99,,,-99.99,,2013-08-26 01:52:00,
2013-08-25 19:40:00,69.0,63.0,-100.00,ENE,65,7.0,14.0,82,-99.99,,,-99.99,,2013-08-26 02:40:00,
2013-08-25 20:11:00,69.0,63.0,-100.00,ENE,65,7.0,14.0,82,-99.99,,,-99.99,,2013-08-26 03:11:00,
2013-08-25 20:21:00,69.0,63.0,-100.00,ENE,65,7.0,14.0,82,-99.99,,,-99.99,,2013-08-26 03:21:00,
2013-08-25 20:34:00,69.0,63.0,-100.00,ENE,65,7.0,14.0,82,-99.99,,,-99.99,,2013-08-26 03:34:00,
2013-08-25 20:55:00,69.0,58.0,-100.00,ENE,73,11.0,19.0,69,-99.99,,,-99.99,,2013-08-26 03:55:00,
2013-08-25 21:14:00,69.0,57.0,-100.00,ENE,61,6.0,14.0,66,-99.99,,,-99.99,,2013-08-26 04:14:00,
2013-08-25 21:43:00,69.0,58.0,-100.00,WSW,244,3.0,5.0,69,-99.99,,,-99.99,,2013-08-26 04:43:00,
2013-08-25 21:53:00,71.0,58.0,-100.00,SSE,160,2.0,5.0,64,-99.99,,,-99.99,,2013-08-26 04:53:00,
2013-08-25 22:52:00,69.0,58.0,-100.00,East,83,4.0,7.0,69,-99.99,,,-99.99,,2013-08-26 05:52:00,
2013-08-25 23:12:00,69.0,60.0,-100.00,SE,130,2.0,5.0,73,-99.99,,,-99.99,,2013-08-26 06:12:00,